Погода в Пяжелке

Россия / Вологодская область     60°08′55″N   35°45′20″E
темп.,
°C
ветер,
м/с
пор.,
м/с
влажн.,
%
обл.,
%
осадки,
мм/ч
давл.,
гПа
погр.,
м
14 апреля, ср
ср1400:00+6ю26100100 0.1 1019110
03:00+6ю24100100 0.1 101882
06:00+5в11100100 0.4 101632
09:00+8юз259897 0.9 1015268
12:00+6ссз3698100 0.0 1016331
15:00+5с3697100 0.7 1019416
18:00+3ссз2698100 0.8 1020563
21:00+3сз2698100 0.8 1022391
15 апреля, чт
чт1500:00+2ссз31093100 0.0 1023342
03:00+1с41089100 0.0 1025328
06:00−1ссв4109198 0.0 1027353
09:00+2ссв497596 0.0 1028570
12:00+5св576111 0.0 1029964
15:00+6св475615 0.0 10291239
18:00+5св47655 0.0 10301122
21:00+1св310878 0.0 1032238
16 апреля, пт
пт1600:00−1всв311825 0.0 1032259
03:00−2всв39845 0.0 1033218
06:00−1всв39855 0.0 1033255
09:00+3в47625 0.0 1033550
12:00+7всв46460 0.0 1033926
15:00+8всв45425 0.0 10331037
18:00+7всв37535 0.0 1032616
21:00+2св278331 0.0 1034129
17 апреля, сб
сб1700:000св278627 0.0 1035119
03:000всв26855 0.0 103693
06:000всв26885 0.0 1036132
09:00+6всв36665 0.0 1036467
12:00+9всв35470 0.0 10361034
15:00+10всв35455 0.0 10351355
18:00+9всв35545 0.0 1034638
21:00+4св24845 0.0 103563
18 апреля, вс
вс1800:00+2всв22865 0.0 103628
03:00+2всв22835 0.0 103623
06:00+1в22845 0.0 103638
09:00+7в246351 0.0 1035369
12:00+10вюв234725 0.0 10351308
15:00+12вюв234122 0.0 10341698
18:00+11в34489 0.0 1033705
21:00+6вюв22695 0.0 103440